Regional Weather Roundup
Issued by NWS Sterling, VA

Home | Current Version | Previous Version | Graphics & Text | Print | Product List | Glossary On
Versions: 1 2 3 4 5 6 7 8 9 10 11 12 13 14 15 16 17 18 19 20 21 22 23 24 25 26 27 28 29 30 31 32 33 34 35 36 37 38 39 40 41 42 43 44 45 46 47 48 49 50
000
ASUS41 KLWX 021910
RWRLWX

REGIONAL WEATHER ROUNDUP
NATIONAL WEATHER SERVICE BALTIMORE MD/WASHINGTON DC
300 PM EDT WED SEP 02 2015

Note: "FAIR" indicates few or no clouds below 12,000 feet
with no significant weather and/or obstructions to visibility.
 TC=TEMPERATURE CELSIUS

 * =Non NWS site. Station does not report precipitation (e.g. rain,
    snow, etc.), thunder, or fog.

DCZ001-MDZ009-015-VAZ040>042-051-053>054-022000-
WASHINGTON METRO

CITY           SKY/WX    TMP DP  RH WIND       PRES   REMARKS
WASHINGTON NAT PTSUNNY   92  65  40 VRB5      29.97F HX  94
DULLES         PTSUNNY   92  66  42 NW7       29.97F HX  94
ANDREWS AFB    MOSUNNY   91  66  44 VRB2      29.96F HX  93
FT BELVOIR     MOSUNNY   91  67  44 W6        29.97F HX  94
QUANTICO       PTSUNNY   87  70  56 CALM      29.98F HX  92
COLLEGE PARK*  MOSUNNY   91  64  40 N7        29.95F HX  93
LEESBURG*      MOSUNNY   90  70  51 SW12G17   30.00S THUNDER HX  95
MANASSAS*      SUNNY     88  72  58 VRB6      29.98F HX  94
GAITHERSBURG*  MOSUNNY   90  66  45 W7        30.01F HX  92

$$

MDZ006>007-011-014-022000-
BALTIMORE METRO

CITY           SKY/WX    TMP DP  RH WIND       PRES   REMARKS
BWI AIRPORT    PTSUNNY   91  65  41 VRB5      29.95F HX  93
MD SCIENCE CTR   N/A     91  63  39 MISG      29.95F HX  92
MARTIN STATE   MOSUNNY   88  75  66 SE8       29.97F HX  97
ANNAPOLIS      MOSUNNY   84  74  71 SE8       29.96F HX  91
FORT MEADE*    MOSUNNY   90  64  43 NW5       29.98F HX  91

$$

MDZ012-015-019>023-022000-
MARYLAND EASTERN SHORE

CITY           SKY/WX    TMP DP  RH WIND       PRES   REMARKS
OCEAN CITY     PTSUNNY   83  71  67 SE6       29.97F
SALISBURY      PTSUNNY   89  68  49 NW8       29.97F HX  93
BAY BRIDGE AP*   N/A     88  64  45 W3        29.96F
CAMBRIDGE*     PTSUNNY   90  68  48 CALM      29.97F HX  93
EASTON*        PTSUNNY   90  68  48 W3        30.00F HX  93

$$

MDZ017>025-022000-
SOUTHERN MARYLAND

CITY           SKY/WX    TMP DP  RH WIND       PRES   REMARKS
PATUXENT RIVER CLOUDY    88  66  48 NE7       29.97F HX  90
ST INIGOES     PTSUNNY   86  75  69 NE3       29.97F HX  95
LEONARDTOWN*   NOT AVBL

$$

MDZ003>005-022000-
NORTH CENTRAL MARYLAND

CITY           SKY/WX    TMP DP  RH WIND       PRES   REMARKS
FREDERICK*     MOSUNNY   91  66  43 W8        30.00  HX  94
HAGERSTOWN APT MOSUNNY   87  65  47 SW10      29.98F
WESTMINSTER*   MOSUNNY   91  66  43 W10       30.00S HX  94

$$

MDZ501>502-022000-
WESTERN MARYLAND

CITY           SKY/WX    TMP DP  RH WIND       PRES   REMARKS
OAKLAND*       CLOUDY    73  64  73 CALM      30.17R
CUMBERLAND*      N/A     70  66  88 CALM      30.09F

$$

VAZ025>031-022000-
SHENANDOAH VALLEY

CITY           SKY/WX    TMP DP  RH WIND       PRES   REMARKS
WINCHESTER*    CLOUDY    82  66  57 SE3       30.01F
FRONT ROYAL*   FAIR      72  70  94 CALM      30.03R
LURAY*         FAIR      82  68  61 CALM      30.01F
NEW MARKET*    FAIR      82  73  73 CALM      30.00F
STAUNTON*      MOSUNNY   89  64  42 W7        30.05F HX  90
WAYNESBORO*    FAIR      90  65  43 CALM      30.05F HX  91

$$

WVZ021-048>050-054>055-022000-
EASTERN WEST VIRGINIA PANHANDLE

CITY           SKY/WX    TMP DP  RH WIND       PRES   REMARKS
MARTINSBURG    PTSUNNY   89  64  43 NW10      29.99F HX  90
PETERSBURG*    PTSUNNY   75  68  79 S3        30.07S

$$

VAZ036>039-050-022000-
CENTRAL FOOTHILLS

CITY           SKY/WX    TMP DP  RH WIND       PRES   REMARKS
CHARLOTTESVILL MOSUNNY   90  66  45 VRB3      30.00F HX  92
CULPEPER*      PTSUNNY   86  70  59 N3        29.99F HX  91
ORANGE*        MOSUNNY   91  63  38 CALM      30.00F HX  92
GORDONSVILLE*  FAIR      91  69  49 SW3       29.98F HX  96
WARRENTON*     FAIR      93  68  44 CALM      29.98F HX  97

$$

VAZ055>057-022000-
NORTH AND CENTRAL PIEDMONT

CITY           SKY/WX    TMP DP  RH WIND       PRES   REMARKS
FREDERICKSBRG* PTSUNNY   93  69  46 E6        29.96F HX  98
STAFFORD*      PTSUNNY   91  64  40 CALM      30.02F HX  92

$$

NCZ024-NYZ072-PAZ021-071-VAZ022-071-022000-
OTHER REGIONAL OBSERVATIONS

CITY           SKY/WX    TMP DP  RH WIND       PRES   REMARKS
NEW YORK CITY  MOSUNNY   89  67  47 S8        29.96F HX  92
PHILADELPHIA   PTSUNNY   91  63  39 S9        29.94F HX  92
PITTSBURGH     MOSUNNY   89  62  40 W9        30.04F
ROANOKE        MOSUNNY   90  61  37 N8        30.06F HX  90
RICHMOND       TSTM      80  70  71 S10G16    29.99S
RALEIGH        PTSUNNY   89  70  53 W5        30.02F HX  94

$$

ANZ530>537-022000-
MARINE OBSERVATIONS

STATION/POSITION TIME  TEMP    WIND        PRES
                       AIR SEA DIR/SP/G
                 (UTC) (F)     (DEG/KT/KT) (MB)
THOMAS PT LIGHT  1900   83 81  160/  4/  5 1015.0
BALT KEY BRIDGE  1800   84     130/  5/  6 1015.1F
COVE POINT       1800   81      20/  3/  4 1016.3F
LEWISETTA        1800   81 81  100/  7/  7 1015.1F
SOLOMONS ISLAND  1800      82                N/A
PINEY POINT      1805          140/  7/  8   N/A

$$



USA.gov is the U.S. government's official web portal to all federal, state and local government web resources and services.